Date String (YYYY-MM-DD hh:mm:ss) UTC,Instrument flags,absolute air pressure of the measurement (hPa),sample flow rate (lpm),inlet stack bypass flow (lpm),air temperature of the measurement (°C),ambient temperature measured by the external sensor (°C),aerosol sample conditioner tube jacket temperature (°C),OPC LED temperature (°C),internal box temperature (°C),relative humidity of the measurement (%),span deviation,mass concentration of particles derived from Lorenz-Mie calculation of OPC scattering (μg/m³),mass concentration of particles derived from Lorenz-Mie calculation of OPC scattering (μg/m³),mass concentration of particles derived from Lorenz-Mie calculation of OPC scattering (μg/m³)
DateTimeUTC,F1_M11,P_M11,Q1_M11,Q2_M11,T1_M11,T2_M11,T3_M11,T4_M11,T5_M11,U1_M11,ZSPAN_M11,X0_M11,X2_M11,X1_M11
2023-07-23 13:00:00,SystemResetWarning,0834.1,5.00,000.00,029.7,028.4,000.0,038.2,031.3,19.9,0000.0,0013.09,0007.92,0007.49
2023-07-23 13:01:00,SystemResetWarning,0834.0,5.00,000.00,029.8,028.5,000.0,038.2,031.4,19.0,0000.0,0013.02,0007.92,0007.47
2023-07-23 13:02:00,SystemResetWarning,0834.1,5.00,000.00,029.8,028.5,000.0,038.3,031.4,18.8,0000.0,0012.45,0007.89,0007.45
2023-07-23 13:03:00,SystemResetWarning,0834.1,5.00,000.00,029.8,028.6,000.0,038.3,031.4,19.4,0001.8,0012.05,0007.86,0007.44
2023-07-23 13:04:00,SystemResetWarning,0834.1,5.00,000.00,029.8,028.6,000.0,038.3,031.5,19.6,0002.5,0011.94,0007.82,0007.42
2023-07-23 13:05:00,SystemResetWarning,0834.0,5.00,000.00,029.9,028.7,000.0,038.3,031.5,19.6,0003.7,0011.96,0007.81,0007.43
2023-07-23 13:06:00,SystemResetWarning,0834.1,5.00,000.00,029.9,028.7,000.0,038.3,031.5,19.1,0003.8,0011.88,0007.82,0007.42
2023-07-23 13:07:00,SystemResetWarning,0834.1,5.00,000.00,029.9,028.7,000.0,038.3,031.5,18.9,0000.7,0011.72,0007.82,0007.42
2023-07-23 13:08:00,SystemResetWarning,0834.1,4.98,000.00,029.9,027.6,000.0,038.3,031.5,19.6,0002.2,0011.27,0007.81,0007.43
2023-07-23 13:09:00,SystemResetWarning,0834.1,5.00,000.00,029.9,026.3,000.0,038.1,031.3,20.2,0002.0,0011.50,0007.80,0007.43
2023-07-23 13:10:00,SystemResetWarning,0834.0,5.01,000.00,029.8,026.3,000.0,038.1,031.2,22.2,0003.1,0011.30,0007.79,0007.43
2023-07-23 13:11:00,SystemResetWarning,0834.0,5.01,000.00,029.7,026.5,000.0,038.2,031.0,21.2,0003.0,0011.25,0007.78,0007.43
2023-07-23 13:12:00,SystemResetWarning,0834.0,5.00,000.00,029.7,026.8,000.0,038.2,031.1,19.8,0003.1,0011.25,0007.77,0007.44
2023-07-23 13:13:00,SystemResetWarning,0834.0,5.00,000.00,029.7,027.1,000.0,038.2,031.1,20.5,0002.9,0011.67,0007.80,0007.46
2023-07-23 13:14:00,SystemResetWarning,0834.0,5.00,000.00,029.7,027.4,000.0,038.2,031.2,21.0,0003.1,0011.95,0007.80,0007.45
2023-07-23 13:15:00,SystemResetWarning,0834.0,5.00,000.00,029.7,027.6,000.0,038.2,031.2,22.5,0002.6,0012.01,0007.82,0007.46
2023-07-23 13:16:00,SystemResetWarning,0834.0,5.00,000.00,029.7,027.8,000.0,038.2,031.2,23.2,0000.8,0011.91,0007.79,0007.45
2023-07-23 13:17:00,SystemResetWarning,0834.1,5.00,000.00,029.7,028.0,000.0,038.2,031.3,25.7,0001.2,0011.76,0007.76,0007.46
2023-07-23 13:18:00,SystemResetWarning,0834.1,5.00,000.00,029.7,028.1,000.0,038.2,031.3,27.6,0001.1,0011.81,0007.81,0007.49
2023-07-23 13:19:00,SystemResetWarning,0834.1,5.00,000.00,029.7,028.3,000.0,038.2,031.4,27.2,0000.4,0011.84,0007.83,0007.50
2023-07-23 13:20:00,SystemResetWarning,0834.1,5.00,000.00,029.8,028.4,000.0,038.3,031.4,27.4,0000.5,0011.48,0007.83,0007.51
2023-07-23 13:21:00,SystemResetWarning,0834.1,5.00,000.00,029.8,028.4,000.0,038.3,031.4,28.8,0000.6,0010.95,0007.87,0007.53
2023-07-23 13:22:00,SystemResetWarning,0834.1,5.00,000.00,029.8,028.5,000.0,038.3,031.4,28.7,0000.0,0010.85,0007.85,0007.53
2023-07-23 13:23:00,SystemResetWarning,0834.1,5.00,000.00,029.8,028.6,000.0,038.3,031.5,28.4,0000.4,0010.91,0007.89,0007.54
2023-07-23 13:24:00,SystemResetWarning,0834.1,4.99,000.00,029.9,028.6,000.0,038.3,031.5,27.3,0000.0,0010.76,0007.89,0007.54
2023-07-23 13:25:00,SystemResetWarning,0834.1,4.99,000.00,029.9,027.8,000.0,038.2,031.5,27.6,0000.0,0010.44,0007.89,0007.54
2023-07-23 13:26:00,SystemResetWarning,0834.0,5.00,000.00,029.8,025.9,000.0,038.1,031.2,25.0,0001.2,0011.52,0007.91,0007.55
2023-07-23 13:27:00,SystemResetWarning,0834.1,5.01,000.00,029.7,025.3,000.0,038.0,031.0,24.9,0001.5,0011.66,0007.93,0007.57
2023-07-23 13:28:00,SystemResetWarning,0834.1,5.01,000.00,029.6,025.6,000.0,038.0,030.8,22.3,0001.7,0011.69,0007.95,0007.58
2023-07-23 13:29:00,SystemResetWarning,0834.1,5.00,000.00,029.5,026.0,000.0,038.1,030.8,21.5,0001.7,0011.78,0007.97,0007.60
2023-07-23 13:30:00,SystemResetWarning,0834.1,4.99,000.00,029.5,026.4,000.0,038.1,030.8,22.1,0001.6,0011.83,0008.01,0007.65
2023-07-23 13:31:00,SystemResetWarning,0834.1,5.00,000.00,029.5,026.7,000.0,038.1,030.9,21.7,0001.1,0011.89,0008.03,0007.67
2023-07-23 13:32:00,SystemResetWarning,0834.2,5.01,000.00,029.5,027.1,000.0,038.1,031.0,21.8,0000.8,0011.88,0008.02,0007.68
2023-07-23 13:33:00,SystemResetWarning,0834.1,5.00,000.00,029.5,027.4,000.0,038.1,031.0,21.8,0000.2,0012.01,0008.06,0007.69
2023-07-23 13:34:00,SystemResetWarning,0834.1,5.00,000.00,029.5,027.6,000.0,038.1,031.1,22.9,0000.1,0011.92,0008.03,0007.69
2023-07-23 13:35:00,SystemResetWarning,0834.1,5.00,000.00,029.5,027.8,000.0,038.1,031.1,22.8,0001.0,0011.74,0008.04,0007.70
2023-07-23 13:36:00,SystemResetWarning,0834.1,5.00,000.00,029.6,027.9,000.0,038.1,031.1,21.6,0001.3,0011.77,0008.06,0007.72
2023-07-23 13:37:00,SystemResetWarning,0834.1,5.00,000.00,029.6,028.1,000.0,038.1,031.2,21.9,0001.2,0010.87,0008.07,0007.73
2023-07-23 13:38:00,SystemResetWarning,0834.2,5.00,000.00,029.6,028.2,000.0,038.1,031.2,22.4,0001.3,0010.75,0008.12,0007.76
2023-07-23 13:39:00,SystemResetWarning,0834.1,5.00,000.00,029.6,028.3,000.0,038.1,031.3,22.2,0001.5,0010.83,0008.16,0007.79
2023-07-23 13:40:00,SystemResetWarning,0834.2,4.99,000.00,029.7,028.4,000.0,038.1,031.3,22.5,0001.9,0010.83,0008.21,0007.83
2023-07-23 13:41:00,SystemResetWarning,0834.1,5.00,000.00,029.7,028.5,000.0,038.1,031.3,23.3,0001.7,0010.91,0008.26,0007.87
2023-07-23 13:42:00,SystemResetWarning,0834.1,4.99,000.00,029.7,028.5,000.0,038.1,031.4,22.6,0001.8,0011.12,0008.42,0008.00
2023-07-23 13:43:00,SystemResetWarning,0834.1,5.00,000.00,029.8,028.6,000.0,038.2,031.4,23.6,0000.2,0011.26,0008.58,0008.15
2023-07-23 13:44:00,SystemResetWarning,0834.1,5.01,000.00,029.8,028.6,000.0,038.2,031.4,23.4,0000.3,0011.44,0008.70,0008.27
2023-07-23 13:45:00,SystemResetWarning,0834.1,4.99,000.00,029.8,027.3,000.0,038.1,031.3,23.4,0003.1,0011.67,0008.86,0008.43
2023-07-23 13:46:00,SystemResetWarning,0834.0,5.01,000.00,029.7,025.7,000.0,038.0,031.1,23.6,0002.7,0011.92,0009.06,0008.59
2023-07-23 13:47:00,SystemResetWarning,0834.1,5.01,000.00,029.6,025.5,000.0,037.9,030.9,24.0,0001.7,0012.37,0009.23,0008.75
2023-07-23 13:48:00,SystemResetWarning,0834.1,5.00,000.00,029.5,025.8,000.0,037.9,030.8,24.8,0002.3,0012.65,0009.39,0008.90
2023-07-23 13:49:00,SystemResetWarning,0834.1,5.00,000.00,029.5,026.2,000.0,038.0,030.8,24.8,0002.3,0012.68,0009.51,0009.02
2023-07-23 13:50:00,SystemResetWarning,0834.1,5.00,000.00,029.5,026.6,000.0,038.0,030.9,25.0,0001.9,0012.75,0009.62,0009.15
2023-07-23 13:51:00,SystemResetWarning,0834.1,4.99,000.00,029.5,026.9,000.0,038.0,030.9,25.3,0001.8,0012.83,0009.71,0009.26
2023-07-23 13:52:00,SystemResetWarning,0834.1,4.98,000.00,029.5,027.2,000.0,038.0,031.0,25.3,0001.6,0013.09,0009.81,0009.34
2023-07-23 13:53:00,SystemResetWarning,0834.1,5.00,000.00,029.5,027.5,000.0,038.0,031.0,24.8,0001.8,0013.09,0009.82,0009.35
2023-07-23 13:54:00,SystemResetWarning,0834.1,5.01,000.00,029.5,027.7,000.0,038.0,031.1,24.8,0001.3,0013.23,0009.86,0009.36
2023-07-23 13:55:00,SystemResetWarning,0834.1,5.00,000.00,029.5,027.9,000.0,038.0,031.1,25.2,0000.9,0013.23,0009.86,0009.35
2023-07-23 13:56:00,SystemResetWarning,0834.1,5.00,000.00,029.5,028.0,000.0,038.0,031.2,24.8,0001.0,0013.44,0009.87,0009.36
2023-07-23 13:57:00,SystemResetWarning,0834.1,5.00,000.00,029.6,028.2,000.0,038.0,031.2,24.6,0000.7,0014.07,0009.84,0009.35
2023-07-23 13:58:00,SystemResetWarning,0834.1,4.99,000.00,029.6,028.3,000.0,038.1,031.2,24.3,0001.4,0014.15,0009.79,0009.32
2023-07-23 13:59:00,SystemResetWarning,0834.1,5.00,000.00,029.6,028.4,000.0,038.1,031.3,22.6,0001.4,0013.78,0009.76,0009.30
